Weather History for KD50 - October, 2011

Change the Weather History Date:

Sunday, October 2, 2011

  Actual Average (KISN) Record (KISN)
Temperature  
Mean Temperature 62 °F 49 °F  
Max Temperature 75 °F 63 °F 92 °F (1997)
Min Temperature 50 °F 35 °F 14 °F (2002)
Degree Days  
Heating Degree Days 2 16  
Month to date heating degree days 31  
Since 1 July heating degree days 377  
Cooling Degree Days 0 0  
Month to date cooling degree days 0  
Year to date cooling degree days 455  
Growing Degree Days 12 (Base 50)    
Moisture  
Dew Point 47 °F    
Average Humidity 64    
Maximum Humidity 87    
Minimum Humidity 36    
Precipitation  
Precipitation 0.01 in 0.03 in 1.82 in (1971)
Month to date precipitation 0.07  
Year to date precipitation 12.25  
Sea Level Pressure  
Sea Level Pressure 29.90 in    
Wind  
Wind Speed 10 mph (NE)    
Max Wind Speed 18 mph    
Max Gust Speed 21 mph    
Visibility 10 miles    
Events Rain    
T = Trace of Precipitation, MM = Missing Value Source: NWS Daily Summary

Daily Weather History Graph

Daily Weather History Graph

Search for Another Location

Airport or City:

Trip Planner

Search our weather history database for the weather conditions in past years. The results will help you decide how hot, cold, wet, or windy it might be!

Date:

Astronomy

Oct. 02, 2011 Rise Set
Actual Time 7:53 AM CDT 7:30 PM CDT
Civil Twilight 7:22 AM CDT 8:01 PM CDT
Nautical Twilight 6:45 AM CDT 8:38 PM CDT
Astronomical Twilight 6:08 AM CDT 9:15 PM CDT
Moon 2:32 PM CDT (10/2) 11:01 PM CDT (10/2)
Length of Visible Light 12h 39m
Length of Day
11h 36m
Waxing Crescent, 35% of the Moon is Illuminated
Oct 2
Waxing Crescent
Oct 3
First Quarter
Oct 11
Full
Oct 19
Last Quarter
Oct 26
New

Hourly Weather History & Observations

Time (CDT) Temp. Dew Point Humidity Pressure Visibility Wind Dir Wind Speed Gust Speed Precip Events Conditions
12:15 AM 59.0 °F 44.6 °F 59% 29.93 in 10.0 mi East 12.7 mph - N/A   Clear
12:55 AM 57.2 °F 44.6 °F 63% 29.93 in 10.0 mi NE 8.1 mph - N/A   Clear
1:15 AM 55.4 °F 44.6 °F 67% 29.92 in 10.0 mi ENE 8.1 mph - N/A   Clear
1:35 AM 55.4 °F 46.4 °F 72% 29.91 in 10.0 mi East 9.2 mph - N/A   Clear
1:55 AM 55.4 °F 46.4 °F 72% 29.92 in 10.0 mi ENE 9.2 mph - N/A   Clear
2:15 AM 53.6 °F 46.4 °F 77% 29.91 in 10.0 mi ENE 11.5 mph - N/A   Clear
2:35 AM 53.6 °F 44.6 °F 72% 29.91 in 10.0 mi ENE 12.7 mph - N/A   Clear
2:55 AM 53.6 °F 44.6 °F 72% 29.91 in 10.0 mi East 12.7 mph - N/A   Clear
3:15 AM 53.6 °F 44.6 °F 72% 29.92 in 10.0 mi East 12.7 mph - N/A   Clear
3:35 AM 53.6 °F 44.6 °F 72% 29.91 in 10.0 mi East 10.4 mph - N/A   Clear
3:55 AM 51.8 °F 44.6 °F 76% 29.90 in 10.0 mi East 10.4 mph - N/A   Clear
4:15 AM 50.0 °F 46.4 °F 87% 29.88 in 10.0 mi East 11.5 mph - N/A   Clear
4:35 AM 50.0 °F 46.4 °F 87% 29.89 in 10.0 mi East 8.1 mph - N/A   Clear
4:55 AM 50.0 °F 46.4 °F 87% 29.89 in 10.0 mi ENE 10.4 mph - N/A   Clear
5:15 AM 50.0 °F 46.4 °F 87% 29.88 in 10.0 mi ENE 10.4 mph - N/A   Clear
5:35 AM 50.0 °F 46.4 °F 87% 29.88 in 10.0 mi ENE 10.4 mph 16.1 mph N/A   Clear
5:55 AM 50.0 °F 44.6 °F 82% 29.89 in 10.0 mi ENE 15.0 mph 20.7 mph N/A   Clear
6:15 AM 50.0 °F 44.6 °F 82% 29.92 in 10.0 mi ENE 10.4 mph - N/A   Clear
6:35 AM 50.0 °F 44.6 °F 82% 29.91 in 10.0 mi ENE 10.4 mph - N/A   Clear
6:55 AM 50.0 °F 44.6 °F 82% 29.91 in 10.0 mi ENE 13.8 mph - N/A   Clear
7:15 AM 50.0 °F 44.6 °F 82% 29.90 in 10.0 mi ENE 17.3 mph - N/A   Clear
7:35 AM 50.0 °F 44.6 °F 82% 29.90 in 10.0 mi ENE 11.5 mph - N/A   Clear
8:15 AM 50.0 °F 44.6 °F 82% 29.90 in 10.0 mi East 13.8 mph - N/A   Clear
8:35 AM 50.0 °F 44.6 °F 82% 29.89 in 10.0 mi East 16.1 mph 20.7 mph N/A   Clear
8:55 AM 50.0 °F 44.6 °F 82% 29.90 in 10.0 mi East 12.7 mph - N/A   Clear
9:15 AM 51.8 °F 44.6 °F 76% 29.90 in 10.0 mi East 17.3 mph - N/A   Clear
9:35 AM 53.6 °F 44.6 °F 72% 29.89 in 10.0 mi East 15.0 mph 20.7 mph N/A   Clear
9:55 AM 53.6 °F 44.6 °F 72% 29.88 in 10.0 mi East 18.4 mph - N/A   Clear
10:15 AM 55.4 °F 44.6 °F 67% 29.87 in 10.0 mi East 13.8 mph - N/A   Clear
10:35 AM 55.4 °F 46.4 °F 72% 29.87 in 10.0 mi East 13.8 mph - N/A   Clear
11:15 AM 59.0 °F 46.4 °F 63% 29.86 in 10.0 mi East 9.2 mph - N/A   Clear
11:35 AM 60.8 °F 46.4 °F 59% 29.87 in 10.0 mi East 6.9 mph - N/A   Clear
11:55 AM 62.6 °F 48.2 °F 59% 29.87 in 10.0 mi ENE 5.8 mph - N/A   Clear
12:15 PM 64.4 °F 48.2 °F 56% 29.87 in 10.0 mi NNE 3.5 mph - N/A   Clear
12:35 PM 66.2 °F 46.4 °F 49% 29.88 in 10.0 mi North 3.5 mph - N/A   Clear
12:55 PM 68.0 °F 48.2 °F 49% 29.87 in 10.0 mi North 5.8 mph - N/A   Clear
1:55 PM 73.4 °F 48.2 °F 41% 29.86 in 3.0 mi Calm Calm - N/A   Haze
2:15 PM 73.4 °F 46.4 °F 38% 29.86 in 10.0 mi SSW 4.6 mph - N/A   Clear
2:35 PM 75.2 °F 48.2 °F 38% 29.86 in 8.0 mi West 5.8 mph - N/A   Clear
2:55 PM 75.2 °F 46.4 °F 36% 29.86 in 10.0 mi WNW 4.6 mph - N/A   Clear
3:15 PM 75.2 °F 46.4 °F 36% 29.86 in 10.0 mi NW 11.5 mph - N/A   Clear
3:35 PM 75.2 °F 46.4 °F 36% 29.86 in 10.0 mi NNW 9.2 mph - N/A Rain Light Rain
3:55 PM 75.2 °F 46.4 °F 36% 29.87 in 10.0 mi NW 11.5 mph - N/A Rain Light Rain
4:35 PM 73.4 °F 46.4 °F 38% 29.87 in 10.0 mi NNW 10.4 mph - N/A Rain Light Rain
5:15 PM 71.6 °F 46.4 °F 41% 29.87 in 10.0 mi North 8.1 mph - N/A   Clear
5:35 PM 71.6 °F 46.4 °F 41% 29.87 in 10.0 mi North 5.8 mph - N/A Rain Light Rain
5:55 PM 71.6 °F 46.4 °F 41% 29.87 in 10.0 mi North 3.5 mph - N/A   Clear
6:15 PM 69.8 °F 48.2 °F 46% 29.87 in 10.0 mi NE 5.8 mph - N/A Rain Light Rain
6:55 PM 66.2 °F 48.2 °F 52% 29.91 in 9.0 mi WNW 9.2 mph - N/A Rain Light Rain
7:15 PM 66.2 °F 48.2 °F 52% 29.92 in 10.0 mi NW 6.9 mph - N/A Rain Light Rain
7:35 PM 64.4 °F 48.2 °F 56% 29.91 in 10.0 mi ENE 6.9 mph - N/A Rain Light Rain
7:55 PM 64.4 °F 50.0 °F 59% 29.91 in 10.0 mi NW 10.4 mph - N/A   Clear
8:15 PM 64.4 °F 50.0 °F 59% 29.92 in 10.0 mi NNW 5.8 mph - N/A   Clear
8:35 PM 64.4 °F 50.0 °F 59% 29.93 in 10.0 mi NE 3.5 mph - 0.01 in   Clear
8:55 PM 64.4 °F 50.0 °F 59% 29.93 in 10.0 mi Calm Calm - 0.01 in   Clear
9:15 PM 64.4 °F 48.2 °F 56% 29.94 in 10.0 mi NW 10.4 mph - N/A Rain Light Rain
9:35 PM 64.4 °F 50.0 °F 59% 29.94 in 10.0 mi NW 9.2 mph - N/A Rain Light Rain
10:15 PM 62.6 °F 50.0 °F 63% 29.95 in 10.0 mi NNW 9.2 mph - N/A Rain Light Rain
10:35 PM 62.6 °F 50.0 °F 63% 29.94 in 10.0 mi NNW 12.7 mph - N/A Rain Light Rain
10:55 PM 62.6 °F 50.0 °F 63% 29.96 in 10.0 mi North 6.9 mph - N/A Rain Light Rain
11:15 PM 60.8 °F 50.0 °F 68% 29.96 in 10.0 mi North 8.1 mph - N/A   Clear
11:35 PM 60.8 °F 50.0 °F 68% 29.95 in 10.0 mi NNE 5.8 mph - N/A Rain Light Rain
11:55 PM 59.0 °F 50.0 °F 72% 29.96 in 10.0 mi East 8.1 mph - N/A Rain Light Rain